[[{"header":{"parameterUnit":"m.s-1","parameterCategory":1,"la1":30.2992,"la2":30.254,"lo1":-89.0895,"lo2":-89.0443,"dy":0.0025,"dx":0.0025,"nx":19,"ny":19,"refTime":"2026-05-23T03:00:00:Z","depth":0,"parameterNumber":2,"parameterNumberName":"U-component_of_WINDS"},"data":[0,0,0,-0.2531,-0.253,-0.248,-0.2479,-0.2419,-0.2419,0,0,0,0,0,0,0,0,0,0,0,-0.2545,-0.2545,-0.2531,-0.2529,-0.248,-0.2479,-0.2419,-0.2419,0,0,0,0,0,0,0,0,0,0,0,-0.2546,-0.2545,-0.2544,-0.2529,-0.248,-0.2479,-0.242,-0.2456,0,0,0,0,0,0,0,0,0,0,-0.2505,-0.2517,-0.2545,-0.2544,-0.2529,-0.248,-0.2479,-0.2458,-0.2454,-0.2443,0,-0.2431,0,-0.2424,-0.2415,-0.2415,0,0,0,-0.253,-0.2521,-0.2507,-0.2544,-0.2529,-0.248,-0.2502,-0.2456,-0.2451,-0.2437,-0.243,-0.2427,-0.2423,-0.2414,-0.2414,-0.2341,-0.2341,0,0,-0.2533,-0.2537,-0.251,-0.2504,-0.2509,-0.2504,-0.2501,-0.2453,-0.2446,-0.2429,-0.2426,-0.2422,-0.2414,-0.2414,-0.2342,-0.2341,0,0,0,-0.254,-0.2539,-0.2526,-0.2507,-0.2497,-0.2502,-0.2499,-0.2448,-0.2443,-0.2425,-0.2421,-0.2414,-0.2413,-0.2342,-0.2342,-0.2325,0,0,0,-0.2542,-0.2543,-0.2527,-0.2529,-0.2498,-0.2471,-0.2495,-0.2447,-0.2441,-0.2421,-0.2414,-0.2412,-0.2343,-0.2342,-0.2326,-0.2316,0,0,0,-0.2549,-0.2544,-0.2536,-0.253,-0.2508,-0.2472,-0.2465,-0.2445,-0.2438,-0.2415,-0.2412,-0.2343,-0.2342,-0.2327,-0.2318,-0.2296,0,0,0,-0.2557,-0.2523,-0.2536,-0.2497,-0.2508,-0.2462,-0.2465,-0.2431,-0.2409,-0.2413,-0.2342,-0.2342,-0.2328,-0.2319,-0.2297,-0.2277,-0.2269,0,0,-0.2516,-0.2518,-0.2495,-0.2505,-0.2457,-0.247,-0.242,-0.2397,-0.2393,-0.236,-0.2358,-0.2326,-0.2318,-0.2296,-0.2229,-0.2223,0,0,0,-0.2484,-0.2467,-0.2453,-0.2431,-0.2412,-0.2395,-0.2379,-0.2371,-0.2342,-0.2376,-0.2313,-0.2309,-0.2296,-0.2286,-0.2281,-0.2269,-0.2338,-0.2338,-0.2338,-0.2429,-0.2425,-0.2386,-0.2376,-0.2355,-0.2339,-0.2322,-0.2309,-0.2312,-0.2297,-0.2286,-0.2246,-0.2234,-0.223,-0.2218,-0.2277,-0.2277,-0.2277,-0.2277,-0.2368,-0.2342,-0.2347,-0.231,-0.2306,-0.2277,-0.2262,-0.2265,-0.2238,-0.2254,-0.2242,-0.2257,-0.2223,-0.2213,-0.2276,-0.2276,-0.2276,-0.2276,-0.2276,-0.2329,-0.2316,-0.2306,-0.2274,-0.2251,-0.2244,-0.2217,-0.2216,-0.2215,-0.2204,-0.2192,-0.2192,-0.219,-0.2199,-0.2199,-0.2199,-0.2199,-0.2198,-0.2198,-0.2292,-0.2282,-0.2258,-0.2236,-0.2222,-0.2204,-0.219,-0.2177,-0.2163,-0.2164,-0.2164,-0.2167,-0.2222,-0.2234,-0.2196,-0.2196,-0.2197,-0.2197,-0.2197,-0.2226,-0.2241,-0.2204,-0.219,-0.2165,-0.2142,-0.2142,-0.2116,-0.2105,-0.2092,-0.21,-0.2141,-0.2143,-0.2147,-0.2157,-0.2101,-0.2101,-0.2101,-0.2101,-0.2191,-0.2193,-0.2155,-0.2133,-0.2112,-0.2108,-0.2068,-0.2059,-0.2051,-0.2045,-0.2053,-0.2068,-0.2072,-0.2072,-0.2077,-0.2086,-0.2014,-0.2014,-0.2014,-0.215,-0.2149,-0.2114,-0.2105,-0.2086,-0.2071,-0.2033,-0.2009,-0.2004,-0.2011,-0.2039,-0.2043,-0.2066,-0.2074,-0.2077,-0.2086,-0.2103,0,0]},{"header":{"parameterUnit":"m.s-1","parameterCategory":1,"la1":30.2992,"la2":30.254,"lo1":-89.0895,"lo2":-89.0443,"dy":0.0025,"dx":0.0025,"nx":19,"ny":19,"refTime":"2026-05-23T03:00:00:Z","depth":0,"parameterNumber":3,"parameterNumberName":"V-component_of_WINDS"},"data":[0,0,0,3.08,3.0804,3.103,3.1031,3.133,3.1332,0,0,0,0,0,0,0,0,0,0,0,3.0736,3.0738,3.0799,3.0805,3.103,3.1031,3.1329,3.1332,0,0,0,0,0,0,0,0,0,0,0,3.0735,3.0737,3.074,3.0806,3.103,3.1031,3.1329,3.1156,0,0,0,0,0,0,0,0,0,0,3.0935,3.0879,3.0737,3.074,3.0807,3.103,3.1031,3.1147,3.1166,3.1231,0,3.1286,0,3.1313,3.1353,3.1354,0,0,0,3.0804,3.0863,3.092,3.074,3.0809,3.1029,3.0928,3.1158,3.118,3.1256,3.129,3.1301,3.1318,3.1355,3.1356,3.1722,3.1723,0,0,3.0791,3.078,3.0905,3.0934,3.0896,3.0921,3.0935,3.1171,3.1209,3.1291,3.1308,3.1323,3.1357,3.1359,3.172,3.1722,0,0,0,3.0756,3.0771,3.0822,3.0922,3.0962,3.0928,3.0944,3.1198,3.1216,3.1311,3.1327,3.1358,3.1362,3.1718,3.1721,3.1797,0,0,0,3.0749,3.075,3.0817,3.0812,3.0957,3.1082,3.0966,3.1199,3.1226,3.1325,3.1359,3.1365,3.1716,3.172,3.179,3.1837,0,0,0,3.072,3.0747,3.078,3.0811,3.0907,3.1079,3.111,3.1205,3.1236,3.1354,3.1366,3.1715,3.1719,3.1785,3.1828,3.1931,0,0,0,3.0688,3.0847,3.0781,3.0964,3.0905,3.1121,3.1108,3.1271,3.1381,3.136,3.1716,3.1721,3.1783,3.1822,3.1925,3.2018,3.2055,0,0,3.0883,3.087,3.0979,3.0926,3.1151,3.1088,3.1325,3.1439,3.1463,3.1635,3.1644,3.1792,3.1827,3.193,3.2256,3.2285,0,0,0,3.1037,3.1115,3.1177,3.1278,3.1365,3.1445,3.1522,3.1563,3.1709,3.1547,3.1856,3.1877,3.1937,3.1983,3.2008,3.2062,3.174,3.1739,3.1739,3.1301,3.1317,3.1498,3.1541,3.164,3.1715,3.1797,3.1867,3.1859,3.193,3.1984,3.2179,3.2232,3.225,3.2306,3.203,3.2031,3.2031,3.2031,3.1591,3.1706,3.1683,3.1852,3.1869,3.2012,3.2089,3.2077,3.2214,3.2141,3.2196,3.2119,3.2281,3.2331,3.2037,3.2036,3.2035,3.2035,3.2034,3.177,3.1828,3.1871,3.2017,3.2128,3.2165,3.2296,3.2306,3.2318,3.2371,3.243,3.2429,3.2432,3.2397,3.2397,3.2398,3.2399,3.2399,3.24,3.1942,3.1987,3.2095,3.2195,3.226,3.2347,3.2419,3.2485,3.256,3.2558,3.2559,3.2545,3.2291,3.223,3.2411,3.2409,3.2407,3.2406,3.2405,3.224,3.2172,3.2339,3.2403,3.2521,3.263,3.2638,3.2769,3.2824,3.2888,3.2859,3.2668,3.2659,3.2639,3.259,3.2852,3.2852,3.2852,3.2853,3.2396,3.2388,3.2559,3.2661,3.2761,3.2783,3.2973,3.3028,3.3077,3.3112,3.3074,3.3006,3.2985,3.2989,3.2962,3.2915,3.3255,3.3256,3.3256,3.2582,3.2583,3.2743,3.2784,3.2875,3.2953,3.3132,3.3252,3.3292,3.3273,3.3141,3.3124,3.3014,3.2977,3.2963,3.2921,3.2836,0,0]}]]